Location: Fauquembergues
(50.6005°N, 2.0987°E)
Time: 21:01:41
(UTC+00:00)

Nadezhda 4 Rocket - Pass Details

Date: 14 July 2020
Orbit: 950 x 991 km, 82.9° (Epoch: 14 August)

Event Time Altitude Azimuth Distance (km) Brightness Sun altitude
Rises 03:03:44 0° 351° (N) 3,712 7.6 -7.0°
Reaches altitude 10° 03:06:16 10° 353° (N) 2,762 7.0 -6.7°
Maximum altitude 03:12:37 72° 78° (ENE) 1,044 4.4 -6.0°
Drops below altitude 10° 03:18:56 10° 163° (SSE) 2,747 6.1 -5.3°
Sets 03:21:27 0° 165° (SSE) 3,690 6.7 -5.0°
